Starlink 33720

operational
NORAD ID: 63468 Int'l Des: 2025-070 Owner: SPXS Country: US Constellation: starlink
LEOCIRCULAR

About Starlink 33720

Description loading...

Live Position

Loading 3D Globe...

Upcoming Passes

Altitude History

Altitude vs Time

uPlot chart will show altitude changes over time

Two-Line Element Set

1 63468U 25070J 25306.17238707 .00029224 00000-0 10666-2 0 9992
2 63468 43.0019 260.0079 0000795 272.1047 87.9713 15.27600817 33473
Epoch: Nov 2, 2025 • Age: 36 hours

Current Status

Altitude 490.8 km
Velocity 7.62 km/s
Sub-Earth Point -31.11°S, 166.31°W
Launch Date Apr 6, 2025
Age 0.5 years
Type internet

Technical Details

Classification Payload
Mass 575.00 kg
Dry Mass 530.00 kg
Total Mass 575.00 kg
Length 0.30 m
Diameter 4.10 m
Span 29.00 m
Shape Box + pan
Manufacturer SPXS
Bus Type Starlink V2MO
Phase Status In Orbit
Owner/State SPXS/US

Large Constellations

Loading constellations...